Location: The Saddle
(36.8333°N, 80.3417°W)
Time: 10:26:05
(UTC-04:00)

AO-7 - Pass Details

Date: 17 December 2023
Orbit: 1439 x 1459 km, 102.0° (Epoch: 24 June)

Event Time Altitude Azimuth Distance (km) Brightness Sun altitude
Rises 17:52:36 0° 197° (SSW) 4,526 ? -9.1°
Reaches altitude 10° 17:55:56 10° 209° (SSW) 3,549 ? -9.7°
Maximum altitude 18:02:38 27° 263° (W) 2,479 ? -10.9°
Drops below altitude 10° 18:09:22 10° 318° (NW) 3,557 ? -12.2°
Sets 18:12:46 0° 331° (NNW) 4,538 ? -12.8°
